When you browse on this site, cookies collect data to enhance your experience and personalize the content and advertising you see.
Visit our Privacy Policy to learn more. By continuing to use the site, you agree to this use of cookies and data.
  • în România
  • Lista ţărilor
  • Pe 7 zile
  • Temperatura apei
  • Hartă satelitară
  • Meteo pe hartă
  • Widget-uri
  • user-avatar
    Intrare

    Meteo pe oră la Laszow

    Astăzi, 19 Decembrie, Miercuri

    Timp Temperatura Precipitaţii Vânt Presiune Umiditate
    00:00 -4°C° 0 mm 2 m/s 749 mmHg 92%
    01:00 -4°C° 0 mm 2 m/s 749 mmHg 92%
    02:00 -5°C° 0 mm 2 m/s 748 mmHg 92%
    03:00 -5°C° 0 mm 2 m/s 748 mmHg 92%
    04:00 -5°C° 0 mm 2 m/s 748 mmHg 92%
    05:00 -6°C° 0 mm 2 m/s 748 mmHg 91%
    06:00 -6°C° 0 mm 2 m/s 748 mmHg 91%
    07:00 -7°C° 0 mm 2 m/s 748 mmHg 91%
    08:00 -7°C° 0 mm 3 m/s 748 mmHg 88%
    09:00 -6°C° 0 mm 3 m/s 747 mmHg 85%
    10:00 -5°C° 0 mm 3 m/s 747 mmHg 83%
    11:00 -5°C° 0 mm 3 m/s 747 mmHg 82%
    12:00 -4°C° 0 mm 3 m/s 747 mmHg 81%
    13:00 -2°C° 0 mm 3 m/s 746 mmHg 80%
    14:00 -4°C° 0 mm 3 m/s 746 mmHg 83%
    15:00 -4°C° 0 mm 2 m/s 746 mmHg 86%
    16:00 -5°C° 0 mm 2 m/s 745 mmHg 89%
    17:00 -5°C° 0 mm 2 m/s 745 mmHg 89%
    18:00 -5°C° 0 mm 2 m/s 745 mmHg 89%
    19:00 -5°C° 0 mm 2 m/s 745 mmHg 89%
    20:00 -5°C° 0 mm 2 m/s 745 mmHg 89%
    21:00 -5°C° 0 mm 2 m/s 745 mmHg 88%
    22:00 -5°C° 0 mm 2 m/s 744 mmHg 88%
    23:00 -5°C° 0 mm 2 m/s 744 mmHg 87%

    Mâine, 20 Decembrie, Joi

    Timp Temperatura Precipitaţii Vânt Presiune Umiditate
    00:00 -5°C° 0 mm 2 m/s 744 mmHg 87%
    01:00 -5°C° 0 mm 2 m/s 744 mmHg 86%
    02:00 -5°C° 0 mm 2 m/s 744 mmHg 85%
    03:00 -5°C° 0 mm 2 m/s 743 mmHg 84%
    04:00 -4°C° 0 mm 2 m/s 743 mmHg 83%
    05:00 -2°C° 0 mm 1 m/s 743 mmHg 83%
    06:00 -3°C° 0 mm 1 m/s 743 mmHg 82%
    07:00 -3°C° 0 mm 1 m/s 743 mmHg 82%
    08:00 -2°C° 0 mm 1 m/s 743 mmHg 81%
    09:00 -1°C° 0 mm 1 m/s 743 mmHg 79%
    10:00 -1°C° 0 mm 1 m/s 743 mmHg 78%
    11:00 0°C° 0 mm 1 m/s 743 mmHg 78%
    12:00 0°C° 0 mm 1 m/s 743 mmHg 78%
    13:00 +1°C° 0 mm 1 m/s 743 mmHg 78%
    14:00 0°C° 0 mm 1 m/s 743 mmHg 80%
    15:00 0°C° 0 mm 1 m/s 743 mmHg 82%
    16:00 0°C° 0 mm 1 m/s 743 mmHg 85%
    17:00 -2°C° 0.2 mm 2 m/s 743 mmHg 87%
    18:00 -2°C° 0.2 mm 2 m/s 743 mmHg 90%
    19:00 -2°C° 0.2 mm 2 m/s 743 mmHg 92%
    20:00 -2°C° 0.2 mm 3 m/s 743 mmHg 92%
    21:00 -2°C° 0.2 mm 3 m/s 743 mmHg 91%
    22:00 -2°C° 0.2 mm 3 m/s 743 mmHg 91%
    23:00 -1°C° 0.1 mm 3 m/s 743 mmHg 90%

    Poimâine, 21 Decembrie, Vineri

    Timp Temperatura Precipitaţii Vânt Presiune Umiditate
    00:00 -1°C° 0.1 mm 3 m/s 743 mmHg 89%
    01:00 -1°C° 0.1 mm 3 m/s 743 mmHg 89%
    02:00 -1°C° 0 mm 3 m/s 743 mmHg 89%
    03:00 -1°C° 0 mm 3 m/s 743 mmHg 89%
    04:00 -2°C° 0 mm 3 m/s 742 mmHg 89%
    05:00 -2°C° 0 mm 3 m/s 742 mmHg 89%
    06:00 -2°C° 0 mm 3 m/s 742 mmHg 88%
    07:00 -2°C° 0 mm 3 m/s 742 mmHg 88%
    08:00 -2°C° 0 mm 4 m/s 742 mmHg 88%
    09:00 -1°C° 0 mm 4 m/s 742 mmHg 87%
    10:00 0°C° 0 mm 4 m/s 742 mmHg 86%
    11:00 0°C° 0.2 mm 4 m/s 741 mmHg 87%
    12:00 0°C° 0.2 mm 4 m/s 741 mmHg 88%
    13:00 +1°C° 0.2 mm 4 m/s 740 mmHg 88%
    14:00 0°C° 0.3 mm 4 m/s 740 mmHg 88%
    15:00 +1°C° 0.3 mm 3 m/s 739 mmHg 88%
    16:00 +1°C° 0.3 mm 3 m/s 738 mmHg 88%
    17:00 0°C° 0.4 mm 4 m/s 738 mmHg 87%
    18:00 0°C° 0.4 mm 4 m/s 737 mmHg 87%
    19:00 0°C° 0.4 mm 4 m/s 737 mmHg 87%
    20:00 0°C° 0.4 mm 4 m/s 736 mmHg 87%
    21:00 +1°C° 0.4 mm 4 m/s 735 mmHg 87%
    22:00 +1°C° 0.4 mm 4 m/s 734 mmHg 86%
    23:00 +1°C° 0.8 mm 5 m/s 734 mmHg 87%

    22 Decembrie, Sâmbătă

    Timp Temperatura Precipitaţii Vânt Presiune Umiditate
    00:00 +2°C° 0.8 mm 6 m/s 734 mmHg 87%
    01:00 +2°C° 0.8 mm 6 m/s 733 mmHg 88%
    02:00 +2°C° 0.1 mm 7 m/s 733 mmHg 88%
    03:00 +3°C° 0.1 mm 7 m/s 733 mmHg 88%
    04:00 +3°C° 0.1 mm 7 m/s 733 mmHg 88%
    05:00 +3°C° 0 mm 7 m/s 733 mmHg 87%
    06:00 +3°C° 0 mm 7 m/s 733 mmHg 87%
    07:00 +3°C° 0 mm 6 m/s 733 mmHg 87%
    08:00 +3°C° 0 mm 6 m/s 733 mmHg 87%
    09:00 +3°C° 0 mm 6 m/s 733 mmHg 88%
    10:00 +4°C° 0 mm 6 m/s 733 mmHg 88%
    11:00 +4°C° 0.2 mm 6 m/s 733 mmHg 88%
    12:00 +4°C° 0.2 mm 6 m/s 733 mmHg 88%
    13:00 +4°C° 0.2 mm 6 m/s 732 mmHg 88%
    14:00 +4°C° 0.2 mm 6 m/s 732 mmHg 88%
    15:00 +4°C° 0.2 mm 6 m/s 732 mmHg 89%
    16:00 +3°C° 0.2 mm 6 m/s 732 mmHg 89%
    17:00 +4°C° 0.2 mm 6 m/s 732 mmHg 86%
    18:00 +4°C° 0.2 mm 7 m/s 732 mmHg 83%
    19:00 +4°C° 0.2 mm 8 m/s 732 mmHg 80%
    20:00 +4°C° 0.2 mm 8 m/s 733 mmHg 82%
    21:00 +4°C° 0.2 mm 8 m/s 733 mmHg 83%
    22:00 +4°C° 0.2 mm 8 m/s 733 mmHg 85%
    23:00 +2°C° 0.1 mm 8 m/s 733 mmHg 83%

    23 Decembrie, Duminică

    Timp Temperatura Precipitaţii Vânt Presiune Umiditate
    00:00 +2°C° 0.1 mm 9 m/s 734 mmHg 81%
    01:00 +2°C° 0.1 mm 9 m/s 734 mmHg 79%
    02:00 +2°C° 0.1 mm 9 m/s 735 mmHg 79%
    03:00 +1°C° 0.1 mm 9 m/s 735 mmHg 79%
    04:00 +1°C° 0.1 mm 9 m/s 736 mmHg 79%
    05:00 0°C° 0 mm 8 m/s 737 mmHg 80%
    06:00 0°C° 0 mm 7 m/s 738 mmHg 82%
    07:00 +1°C° 0 mm 6 m/s 739 mmHg 84%
    08:00 +1°C° 0 mm 5 m/s 739 mmHg 84%
    09:00 +1°C° 0 mm 5 m/s 740 mmHg 84%
    10:00 +1°C° 0 mm 4 m/s 740 mmHg 84%
    11:00 +1°C° 0.1 mm 4 m/s 741 mmHg 83%
    12:00 +3°C° 0.1 mm 4 m/s 741 mmHg 82%
    13:00 +3°C° 0.1 mm 4 m/s 741 mmHg 81%
    14:00 +3°C° 0.2 mm 3 m/s 741 mmHg 84%
    15:00 +3°C° 0.2 mm 2 m/s 741 mmHg 87%
    16:00 +3°C° 0.2 mm 2 m/s 741 mmHg 90%
    17:00 +3°C° 0.3 mm 2 m/s 741 mmHg 90%
    18:00 +3°C° 0.3 mm 2 m/s 741 mmHg 90%
    19:00 +2°C° 0.3 mm 3 m/s 742 mmHg 90%
    20:00 +2°C° 0.3 mm 3 m/s 742 mmHg 89%
    21:00 +1°C° 0.3 mm 4 m/s 742 mmHg 88%
    22:00 +1°C° 0.3 mm 4 m/s 742 mmHg 87%
    23:00 +1°C° 0.1 mm 4 m/s 742 mmHg 87%

    24 Decembrie, Luni

    Timp Temperatura Precipitaţii Vânt Presiune Umiditate
    00:00 +1°C° 0.1 mm 4 m/s 742 mmHg 87%
    01:00 0°C° 0.1 mm 4 m/s 742 mmHg 87%
    02:00 0°C° 0.1 mm 4 m/s 742 mmHg 87%
    03:00 0°C° 0.1 mm 4 m/s 742 mmHg 88%
    04:00 0°C° 0.1 mm 5 m/s 741 mmHg 88%
    05:00 0°C° 0.1 mm 5 m/s 741 mmHg 88%
    06:00 0°C° 0.1 mm 5 m/s 741 mmHg 88%
    07:00 0°C° 0.1 mm 5 m/s 741 mmHg 87%
    08:00 0°C° 0.5 mm 5 m/s 741 mmHg 87%
    09:00 +1°C° 0.5 mm 6 m/s 741 mmHg 86%
    10:00 +1°C° 0.5 mm 6 m/s 741 mmHg 86%
    11:00 +1°C° 0.1 mm 6 m/s 741 mmHg 84%
    12:00 0°C° 0.1 mm 7 m/s 742 mmHg 82%
    13:00 +2°C° 0.1 mm 7 m/s 742 mmHg 80%
    14:00 0°C° 0.1 mm 7 m/s 742 mmHg 81%
    15:00 0°C° 0.1 mm 7 m/s 743 mmHg 82%
    16:00 -1°C° 0.1 mm 7 m/s 744 mmHg 83%
    17:00 -1°C° 0.1 mm 6 m/s 744 mmHg 84%
    18:00 0°C° 0.1 mm 5 m/s 745 mmHg 85%
    19:00 0°C° 0.1 mm 4 m/s 746 mmHg 86%
    20:00 -1°C° 0.1 mm 4 m/s 746 mmHg 87%
    21:00 -1°C° 0.1 mm 4 m/s 746 mmHg 88%
    22:00 0°C° 0.1 mm 3 m/s 747 mmHg 89%
    23:00 -1°C° 0.1 mm 4 m/s 747 mmHg 89%
    Arată mai mult